Wetterdaten: Sonntag, 23.08.2015
Datum Zeit Auen-Temp. Temp gefhlt Luftfeuchte Luftdruck Regen Wind Richtung Richtung Taupunkt Windben
23.08.2015 00:00 9,9 C 9,8 C 82 % 1009,4 hPa 0,0 mm 0,0 km/h (0 Bft) O 90 7,0 C 0,0 km/h (0 Bft)
23.08.2015 00:05 9,7 C 9,6 C 82 % 1009,4 hPa 0,0 mm 0,0 km/h (0 Bft) O-SO 112 6,8 C 0,0 km/h (0 Bft)
23.08.2015 00:10 9,7 C 9,6 C 82 % 1009,4 hPa 0,0 mm 0,0 km/h (0 Bft) O-SO 112 6,8 C 0,0 km/h (0 Bft)
23.08.2015 00:15 9,7 C 9,6 C 82 % 1009,1 hPa 0,0 mm 0,0 km/h (0 Bft) O-SO 112 6,8 C 0,0 km/h (0 Bft)
23.08.2015 00:20 9,6 C 9,5 C 83 % 1009,1 hPa 0,0 mm 0,0 km/h (0 Bft) N-NW 337 6,9 C 0,0 km/h (0 Bft)
23.08.2015 00:25 9,6 C 9,5 C 83 % 1009,1 hPa 0,0 mm 0,0 km/h (0 Bft) W-NW 292 6,9 C 0,0 km/h (0 Bft)
23.08.2015 00:30 9,8 C 9,5 C 84 % 1009,1 hPa 0,0 mm 0,0 km/h (0 Bft) W-NW 292 7,2 C 0,0 km/h (0 Bft)
23.08.2015 00:35 9,7 C 9,4 C 84 % 1009,1 hPa 0,0 mm 0,0 km/h (0 Bft) S 180 7,1 C 0,0 km/h (0 Bft)
23.08.2015 00:40 10,1 C 9,9 C 82 % 1009,1 hPa 0,0 mm 0,0 km/h (0 Bft) S-SO 157 7,2 C 0,0 km/h (0 Bft)
23.08.2015 00:45 10,2 C 10,0 C 82 % 1009,1 hPa 0,0 mm 0,0 km/h (0 Bft) S 180 7,3 C 0,0 km/h (0 Bft)
23.08.2015 00:50 10,6 C 10,3 C 82 % 1009,1 hPa 0,0 mm 0,3 km/h (0 Bft) SO 135 7,7 C 3,9 km/h (1 Bft)
23.08.2015 00:55 10,2 C 10,0 C 85 % 1008,9 hPa 0,0 mm 0,3 km/h (0 Bft) SO 135 7,8 C 0,0 km/h (0 Bft)
23.08.2015 01:00 9,5 C 9,4 C 84 % 1008,9 hPa 0,0 mm 0,0 km/h (0 Bft) W 270 6,9 C 0,0 km/h (0 Bft)
23.08.2015 01:05 9,3 C 9,2 C 84 % 1008,9 hPa 0,0 mm 0,0 km/h (0 Bft) W 270 6,7 C 0,0 km/h (0 Bft)
23.08.2015 01:10 9,6 C 9,3 C 85 % 1008,9 hPa 0,0 mm 0,0 km/h (0 Bft) S 180 7,2 C 0,0 km/h (0 Bft)
23.08.2015 01:15 9,6 C 9,3 C 85 % 1008,8 hPa 0,0 mm 0,0 km/h (0 Bft) S 180 7,2 C 0,0 km/h (0 Bft)
23.08.2015 01:20 9,4 C 9,1 C 85 % 1008,8 hPa 0,0 mm 0,0 km/h (0 Bft) W-SW 247 7,0 C 0,0 km/h (0 Bft)
23.08.2015 01:25 9,2 C 9,0 C 85 % 1008,8 hPa 0,0 mm 0,0 km/h (0 Bft) W-SW 247 6,8 C 0,0 km/h (0 Bft)
23.08.2015 01:30 8,9 C 8,7 C 85 % 1008,8 hPa 0,0 mm 0,0 km/h (0 Bft) W-SW 247 6,5 C 0,0 km/h (0 Bft)
23.08.2015 01:35 9,0 C 8,8 C 85 % 1008,5 hPa 0,0 mm 0,0 km/h (0 Bft) S 180 6,6 C 0,0 km/h (0 Bft)
23.08.2015 01:40 9,0 C 8,7 C 85 % 1008,5 hPa 0,0 mm 0,0 km/h (0 Bft) S 180 6,6 C 0,0 km/h (0 Bft)
23.08.2015 01:45 8,9 C 8,7 C 86 % 1008,5 hPa 0,0 mm 0,0 km/h (0 Bft) S 180 6,7 C 0,0 km/h (0 Bft)
23.08.2015 01:50 8,6 C 8,5 C 86 % 1008,5 hPa 0,0 mm 0,0 km/h (0 Bft) W-SW 247 6,4 C 0,0 km/h (0 Bft)
23.08.2015 01:55 8,5 C 8,4 C 85 % 1008,1 hPa 0,0 mm 0,0 km/h (0 Bft) W-SW 247 6,1 C 0,0 km/h (0 Bft)
23.08.2015 02:00 8,7 C 8,5 C 86 % 1008,1 hPa 0,0 mm 0,0 km/h (0 Bft) SO 135 6,5 C 0,0 km/h (0 Bft)
23.08.2015 02:05 8,4 C 8,3 C 86 % 1008,1 hPa 0,0 mm 0,0 km/h (0 Bft) SO 135 6,2 C 0,0 km/h (0 Bft)
23.08.2015 02:10 8,4 C 8,2 C 86 % 1008,1 hPa 0,0 mm 0,0 km/h (0 Bft) SO 135 6,2 C 0,0 km/h (0 Bft)
23.08.2015 02:15 8,4 C 8,2 C 86 % 1008,1 hPa 0,0 mm 0,0 km/h (0 Bft) SO 135 6,2 C 0,0 km/h (0 Bft)
23.08.2015 02:20 8,2 C 8,1 C 86 % 1008,1 hPa 0,0 mm 0,0 km/h (0 Bft) SO 135 6,0 C 0,0 km/h (0 Bft)
23.08.2015 02:25 8,4 C 8,2 C 86 % 1008,1 hPa 0,0 mm 0,0 km/h (0 Bft) SO 135 6,2 C 0,0 km/h (0 Bft)
23.08.2015 02:30 8,5 C 8,3 C 87 % 1008,1 hPa 0,0 mm 0,0 km/h (0 Bft) S-SO 157 6,5 C 0,0 km/h (0 Bft)
23.08.2015 02:35 8,5 C 8,3 C 87 % 1007,8 hPa 0,0 mm 0,0 km/h (0 Bft) S 180 6,5 C 0,0 km/h (0 Bft)
23.08.2015 02:40 8,4 C 8,3 C 87 % 1007,8 hPa 0,0 mm 0,3 km/h (0 Bft) W 270 6,4 C 4,9 km/h (1 Bft)
23.08.2015 02:45 8,2 C 8,2 C 87 % 1007,8 hPa 0,0 mm 0,5 km/h (0 Bft) W-NW 292 6,2 C 0,0 km/h (0 Bft)
23.08.2015 02:50 8,2 C 8,1 C 87 % 1007,8 hPa 0,0 mm 0,0 km/h (0 Bft) W-NW 292 6,2 C 0,0 km/h (0 Bft)
23.08.2015 02:55 8,2 C 8,1 C 87 % 1007,7 hPa 0,0 mm 0,0 km/h (0 Bft) W-NW 292 6,2 C 0,0 km/h (0 Bft)
23.08.2015 03:00 7,9 C 7,8 C 87 % 1007,7 hPa 0,0 mm 0,0 km/h (0 Bft) W-NW 292 5,9 C 0,0 km/h (0 Bft)
23.08.2015 03:05 8,1 C 7,9 C 87 % 1007,7 hPa 0,0 mm 0,0 km/h (0 Bft) W-SW 247 6,1 C 0,0 km/h (0 Bft)
23.08.2015 03:10 8,2 C 8,1 C 87 % 1007,7 hPa 0,0 mm 0,0 km/h (0 Bft) NO 45 6,2 C 0,0 km/h (0 Bft)
23.08.2015 03:15 8,0 C 7,9 C 87 % 1007,6 hPa 0,0 mm 0,0 km/h (0 Bft) N-NO 22 6,0 C 0,0 km/h (0 Bft)
23.08.2015 03:20 8,3 C 8,1 C 88 % 1007,6 hPa 0,0 mm 0,0 km/h (0 Bft) NO 45 6,4 C 0,0 km/h (0 Bft)
23.08.2015 03:25 8,4 C 8,2 C 88 % 1007,6 hPa 0,0 mm 0,0 km/h (0 Bft) W-NW 292 6,5 C 0,0 km/h (0 Bft)
23.08.2015 03:30 8,6 C 8,4 C 88 % 1007,6 hPa 0,0 mm 0,0 km/h (0 Bft) W-NW 292 6,7 C 0,0 km/h (0 Bft)
23.08.2015 03:35 8,4 C 8,2 C 88 % 1007,3 hPa 0,0 mm 0,5 km/h (0 Bft) SW 225 6,5 C 6,5 km/h (2 Bft)
23.08.2015 03:40 8,6 C 8,5 C 88 % 1007,3 hPa 0,0 mm 1,0 km/h (0 Bft) S 180 6,7 C 0,0 km/h (0 Bft)
23.08.2015 03:45 8,2 C 8,3 C 88 % 1007,3 hPa 0,0 mm 1,0 km/h (0 Bft) S 180 6,3 C 0,0 km/h (0 Bft)
23.08.2015 03:50 8,0 C 8,1 C 88 % 1007,3 hPa 0,0 mm 0,3 km/h (0 Bft) O 90 6,1 C 0,0 km/h (0 Bft)
23.08.2015 03:55 8,2 C 8,1 C 88 % 1007,1 hPa 0,0 mm 0,3 km/h (0 Bft) O-SO 112 6,3 C 0,0 km/h (0 Bft)
23.08.2015 04:00 8,2 C 8,1 C 88 % 1007,1 hPa 0,0 mm 0,0 km/h (0 Bft) O-SO 112 6,3 C 0,0 km/h (0 Bft)
23.08.2015 04:05 8,2 C 8,1 C 88 % 1007,1 hPa 0,0 mm 0,0 km/h (0 Bft) O-SO 112 6,3 C 0,0 km/h (0 Bft)
23.08.2015 04:10 8,4 C 8,3 C 89 % 1007,1 hPa 0,0 mm 0,0 km/h (0 Bft) O-SO 112 6,7 C 0,0 km/h (0 Bft)
23.08.2015 04:15 8,5 C 8,3 C 89 % 1006,9 hPa 0,0 mm 0,0 km/h (0 Bft) O-SO 112 6,8 C 0,0 km/h (0 Bft)
23.08.2015 04:20 8,2 C 8,1 C 89 % 1006,9 hPa 0,0 mm 0,0 km/h (0 Bft) O-SO 112 6,5 C 0,0 km/h (0 Bft)
23.08.2015 04:25 8,0 C 7,9 C 88 % 1006,9 hPa 0,0 mm 0,0 km/h (0 Bft) O-SO 112 6,1 C 0,0 km/h (0 Bft)
23.08.2015 04:30 7,9 C 7,8 C 89 % 1006,9 hPa 0,0 mm 0,0 km/h (0 Bft) O-SO 112 6,2 C 0,0 km/h (0 Bft)
23.08.2015 04:35 7,9 C 7,7 C 89 % 1006,9 hPa 0,0 mm 0,0 km/h (0 Bft) O-SO 112 6,2 C 0,0 km/h (0 Bft)
23.08.2015 04:40 7,9 C 7,7 C 89 % 1006,9 hPa 0,0 mm 0,0 km/h (0 Bft) NW 315 6,2 C 0,0 km/h (0 Bft)
23.08.2015 04:45 7,8 C 7,6 C 89 % 1006,9 hPa 0,0 mm 0,0 km/h (0 Bft) NW 315 6,1 C 0,0 km/h (0 Bft)
23.08.2015 04:50 7,6 C 7,5 C 89 % 1006,9 hPa 0,0 mm 0,0 km/h (0 Bft) NW 315 5,9 C 0,0 km/h (0 Bft)
23.08.2015 04:55 7,5 C 7,4 C 89 % 1006,8 hPa 0,0 mm 0,0 km/h (0 Bft) NW 315 5,8 C 0,0 km/h (0 Bft)
23.08.2015 05:00 7,7 C 7,5 C 89 % 1006,8 hPa 0,0 mm 0,0 km/h (0 Bft) NW 315 6,0 C 0,0 km/h (0 Bft)
23.08.2015 05:05 8,0 C 7,8 C 89 % 1006,8 hPa 0,0 mm 0,5 km/h (0 Bft) S-SW 202 6,3 C 0,0 km/h (0 Bft)
23.08.2015 05:10 8,4 C 8,3 C 86 % 1006,8 hPa 0,0 mm 0,5 km/h (0 Bft) S 180 6,2 C 0,0 km/h (0 Bft)
23.08.2015 05:15 8,7 C 8,6 C 86 % 1006,6 hPa 0,0 mm 0,5 km/h (0 Bft) O-SO 112 6,5 C 0,0 km/h (0 Bft)
23.08.2015 05:20 8,6 C 8,5 C 90 % 1006,6 hPa 0,0 mm 0,5 km/h (0 Bft) S 180 7,1 C 0,0 km/h (0 Bft)
23.08.2015 05:25 8,7 C 8,6 C 90 % 1006,6 hPa 0,0 mm 0,8 km/h (0 Bft) S 180 7,2 C 0,0 km/h (0 Bft)
23.08.2015 05:30 8,1 C 8,3 C 90 % 1006,6 hPa 0,0 mm 0,8 km/h (0 Bft) S-SO 157 6,6 C 0,0 km/h (0 Bft)
23.08.2015 05:35 8,0 C 8,3 C 89 % 1006,5 hPa 0,0 mm 0,0 km/h (0 Bft) SO 135 6,3 C 0,0 km/h (0 Bft)
23.08.2015 05:40 7,9 C 8,0 C 90 % 1006,5 hPa 0,0 mm 0,0 km/h (0 Bft) S-SW 202 6,4 C 0,0 km/h (0 Bft)
23.08.2015 05:45 7,8 C 7,8 C 90 % 1006,5 hPa 0,0 mm 0,0 km/h (0 Bft) S-SW 202 6,3 C 0,0 km/h (0 Bft)
23.08.2015 05:50 7,6 C 7,6 C 89 % 1006,5 hPa 0,0 mm 0,0 km/h (0 Bft) S-SW 202 5,9 C 0,0 km/h (0 Bft)
23.08.2015 05:55 7,7 C 7,6 C 89 % 1006,4 hPa 0,0 mm 0,0 km/h (0 Bft) S-SW 202 6,0 C 0,0 km/h (0 Bft)
23.08.2015 05:56 7,5 C 7,4 C 89 % 1006,4 hPa 0,0 mm 0,0 km/h (0 Bft) S-SW 202 5,8 C 0,0 km/h (0 Bft)
23.08.2015 05:59 7,5 C 7,4 C 89 % 1006,4 hPa 0,0 mm 0,0 km/h (0 Bft) S-SW 202 5,8 C 0,0 km/h (0 Bft)
23.08.2015 06:00 7,5 C 7,4 C 89 % 1006,4 hPa 0,0 mm 0,0 km/h (0 Bft) S-SW 202 5,8 C 0,0 km/h (0 Bft)
23.08.2015 06:05 7,7 C 7,5 C 89 % 1006,4 hPa 0,0 mm 0,0 km/h (0 Bft) S-SW 202 6,0 C 0,0 km/h (0 Bft)
23.08.2015 06:10 7,7 C 7,5 C 90 % 1006,4 hPa 0,0 mm 0,0 km/h (0 Bft) SO 135 6,2 C 0,0 km/h (0 Bft)
23.08.2015 06:15 7,6 C 7,5 C 90 % 1006,4 hPa 0,0 mm 0,0 km/h (0 Bft) SO 135 6,1 C 0,0 km/h (0 Bft)
23.08.2015 06:20 7,7 C 7,6 C 90 % 1006,4 hPa 0,0 mm 0,0 km/h (0 Bft) SO 135 6,2 C 0,0 km/h (0 Bft)
23.08.2015 06:25 7,7 C 7,6 C 90 % 1006,4 hPa 0,0 mm 0,0 km/h (0 Bft) SO 135 6,2 C 0,0 km/h (0 Bft)
23.08.2015 06:30 7,7 C 7,6 C 90 % 1006,4 hPa 0,0 mm 0,0 km/h (0 Bft) SO 135 6,2 C 0,0 km/h (0 Bft)
23.08.2015 06:35 7,6 C 7,5 C 90 % 1006,3 hPa 0,0 mm 0,0 km/h (0 Bft) S-SO 157 6,1 C 0,0 km/h (0 Bft)
23.08.2015 06:40 7,8 C 7,7 C 90 % 1006,3 hPa 0,0 mm 0,0 km/h (0 Bft) SW 225 6,3 C 0,0 km/h (0 Bft)
23.08.2015 06:45 7,9 C 7,8 C 90 % 1006,3 hPa 0,0 mm 0,0 km/h (0 Bft) SW 225 6,4 C 0,0 km/h (0 Bft)
23.08.2015 06:50 7,9 C 7,9 C 90 % 1006,3 hPa 0,0 mm 0,0 km/h (0 Bft) S-SW 202 6,4 C 0,0 km/h (0 Bft)
23.08.2015 06:55 7,9 C 8,0 C 90 % 1006,2 hPa 0,0 mm 0,3 km/h (0 Bft) SW 225 6,4 C 0,0 km/h (0 Bft)
23.08.2015 07:00 8,0 C 8,1 C 90 % 1006,2 hPa 0,0 mm 0,3 km/h (0 Bft) W 270 6,5 C 0,0 km/h (0 Bft)
23.08.2015 07:05 8,0 C 8,1 C 90 % 1006,2 hPa 0,0 mm 0,0 km/h (0 Bft) W 270 6,5 C 0,0 km/h (0 Bft)
23.08.2015 07:10 8,3 C 8,3 C 90 % 1006,2 hPa 0,0 mm 0,3 km/h (0 Bft) SW 225 6,8 C 0,0 km/h (0 Bft)
23.08.2015 07:15 8,4 C 8,6 C 90 % 1006,2 hPa 0,0 mm 0,3 km/h (0 Bft) NW 315 6,9 C 0,0 km/h (0 Bft)
23.08.2015 07:20 8,6 C 8,9 C 87 % 1006,2 hPa 0,0 mm 0,0 km/h (0 Bft) W-SW 247 6,6 C 0,0 km/h (0 Bft)
23.08.2015 07:25 8,7 C 9,2 C 87 % 1006,2 hPa 0,0 mm 0,0 km/h (0 Bft) W-NW 292 6,7 C 0,0 km/h (0 Bft)
23.08.2015 07:30 8,7 C 9,3 C 90 % 1006,2 hPa 0,0 mm 0,0 km/h (0 Bft) W-SW 247 7,2 C 0,0 km/h (0 Bft)
23.08.2015 07:35 8,8 C 9,5 C 87 % 1006,2 hPa 0,0 mm 0,0 km/h (0 Bft) W-SW 247 6,8 C 0,0 km/h (0 Bft)
23.08.2015 07:40 9,1 C 11,1 C 87 % 1006,2 hPa 0,0 mm 0,3 km/h (0 Bft) W-SW 247 7,1 C 8,5 km/h (2 Bft)
23.08.2015 07:45 9,5 C 12,0 C 87 % 1006,2 hPa 0,0 mm 0,5 km/h (0 Bft) NW 315 7,4 C 0,0 km/h (0 Bft)
23.08.2015 07:50 9,9 C 13,1 C 87 % 1006,2 hPa 0,0 mm 0,5 km/h (0 Bft) SW 225 7,8 C 0,0 km/h (0 Bft)
23.08.2015 07:55 10,3 C 13,8 C 87 % 1006,0 hPa 0,0 mm 0,0 km/h (0 Bft) NW 315 8,2 C 0,0 km/h (0 Bft)
23.08.2015 08:00 11,2 C 15,4 C 87 % 1006,0 hPa 0,0 mm 0,0 km/h (0 Bft) N-NW 337 9,1 C 0,0 km/h (0 Bft)
23.08.2015 08:05 11,8 C 16,8 C 87 % 1006,0 hPa 0,0 mm 0,0 km/h (0 Bft) N-NW 337 9,7 C 0,0 km/h (0 Bft)
23.08.2015 08:10 12,8 C 18,3 C 86 % 1006,0 hPa 0,0 mm 0,3 km/h (0 Bft) O-SO 112 10,5 C 0,0 km/h (0 Bft)
23.08.2015 08:15 13,4 C 19,5 C 86 % 1005,9 hPa 0,0 mm 0,3 km/h (0 Bft) O-SO 112 11,1 C 0,0 km/h (0 Bft)
23.08.2015 08:20 14,1 C 20,3 C 85 % 1005,9 hPa 0,0 mm 0,0 km/h (0 Bft) O-SO 112 11,6 C 0,0 km/h (0 Bft)
23.08.2015 08:25 14,3 C 20,9 C 85 % 1005,9 hPa 0,0 mm 0,0 km/h (0 Bft) SO 135 11,8 C 0,0 km/h (0 Bft)
23.08.2015 08:30 14,5 C 20,2 C 84 % 1005,9 hPa 0,0 mm 0,0 km/h (0 Bft) SO 135 11,8 C 0,0 km/h (0 Bft)
23.08.2015 08:35 14,3 C 19,0 C 84 % 1006,1 hPa 0,0 mm 0,0 km/h (0 Bft) SO 135 11,6 C 0,0 km/h (0 Bft)
23.08.2015 08:40 14,2 C 17,8 C 83 % 1006,1 hPa 0,0 mm 0,0 km/h (0 Bft) SW 225 11,4 C 2,8 km/h (1 Bft)
23.08.2015 08:45 14,3 C 17,7 C 82 % 1006,1 hPa 0,0 mm 0,3 km/h (0 Bft) SW 225 11,3 C 0,0 km/h (0 Bft)
23.08.2015 08:50 15,0 C 19,0 C 82 % 1006,1 hPa 0,0 mm 0,3 km/h (0 Bft) S-SW 202 12,0 C 0,0 km/h (0 Bft)
23.08.2015 08:55 15,1 C 19,5 C 82 % 1006,3 hPa 0,0 mm 0,0 km/h (0 Bft) O 90 12,0 C 0,0 km/h (0 Bft)
23.08.2015 09:00 15,5 C 20,3 C 81 % 1006,3 hPa 0,0 mm 0,0 km/h (0 Bft) NO 45 12,3 C 0,0 km/h (0 Bft)
23.08.2015 09:05 16,5 C 21,9 C 80 % 1006,3 hPa 0,0 mm 0,0 km/h (0 Bft) NO 45 13,0 C 0,0 km/h (0 Bft)
23.08.2015 09:10 16,8 C 23,5 C 79 % 1006,3 hPa 0,0 mm 0,0 km/h (0 Bft) NW 315 13,1 C 0,0 km/h (0 Bft)
23.08.2015 09:15 16,6 C 22,5 C 78 % 1006,4 hPa 0,0 mm 0,0 km/h (0 Bft) N 360 12,7 C 0,0 km/h (0 Bft)
23.08.2015 09:20 16,8 C 21,8 C 78 % 1006,4 hPa 0,0 mm 0,0 km/h (0 Bft) N-NW 337 12,9 C 0,0 km/h (0 Bft)
23.08.2015 09:25 17,0 C 21,9 C 78 % 1006,4 hPa 0,0 mm 0,3 km/h (0 Bft) N-NW 337 13,1 C 3,6 km/h (1 Bft)
23.08.2015 09:30 17,2 C 21,7 C 77 % 1006,4 hPa 0,0 mm 0,3 km/h (0 Bft) N-NO 22 13,1 C 0,0 km/h (0 Bft)
23.08.2015 09:35 17,5 C 22,4 C 76 % 1006,5 hPa 0,0 mm 0,3 km/h (0 Bft) O-NO 67 13,2 C 0,0 km/h (0 Bft)
23.08.2015 09:40 18,0 C 23,8 C 75 % 1006,5 hPa 0,0 mm 0,3 km/h (0 Bft) O-NO 67 13,5 C 3,1 km/h (1 Bft)
23.08.2015 09:45 18,6 C 24,9 C 74 % 1006,5 hPa 0,0 mm 0,5 km/h (0 Bft) N-NW 337 13,9 C 0,0 km/h (0 Bft)
23.08.2015 09:50 19,3 C 26,0 C 72 % 1006,5 hPa 0,0 mm 0,5 km/h (0 Bft) N-NO 22 14,1 C 0,0 km/h (0 Bft)
23.08.2015 09:55 19,0 C 25,7 C 71 % 1006,6 hPa 0,0 mm 0,0 km/h (0 Bft) NO 45 13,6 C 2,6 km/h (1 Bft)
23.08.2015 10:00 18,4 C 23,7 C 71 % 1006,6 hPa 0,0 mm 0,3 km/h (0 Bft) N-NO 22 13,0 C 3,4 km/h (1 Bft)
23.08.2015 10:05 18,6 C 23,0 C 71 % 1006,6 hPa 0,0 mm 0,3 km/h (0 Bft) NO 45 13,2 C 0,0 km/h (0 Bft)
23.08.2015 10:10 19,2 C 24,1 C 71 % 1006,6 hPa 0,0 mm 0,0 km/h (0 Bft) NO 45 13,8 C 0,0 km/h (0 Bft)
23.08.2015 10:15 19,6 C 25,3 C 70 % 1006,7 hPa 0,0 mm 0,3 km/h (0 Bft) N-NO 22 14,0 C 0,0 km/h (0 Bft)
23.08.2015 10:20 20,7 C 26,6 C 69 % 1006,7 hPa 0,0 mm 1,0 km/h (0 Bft) N-NO 22 14,8 C 5,2 km/h (1 Bft)
23.08.2015 10:25 20,7 C 26,6 C 68 % 1006,7 hPa 0,0 mm 1,8 km/h (1 Bft) N-NO 22 14,6 C 3,1 km/h (1 Bft)
23.08.2015 10:30 21,0 C 27,7 C 66 % 1006,7 hPa 0,0 mm 1,3 km/h (1 Bft) O-NO 67 14,4 C 0,0 km/h (0 Bft)
23.08.2015 10:35 20,7 C 27,3 C 67 % 1006,8 hPa 0,0 mm 0,8 km/h (0 Bft) NW 315 14,3 C 3,4 km/h (1 Bft)
23.08.2015 10:40 21,1 C 27,3 C 66 % 1006,8 hPa 0,0 mm 2,1 km/h (1 Bft) O-NO 67 14,5 C 2,6 km/h (1 Bft)
23.08.2015 10:45 21,1 C 27,7 C 64 % 1006,8 hPa 0,0 mm 3,1 km/h (1 Bft) SO 135 14,0 C 3,9 km/h (1 Bft)
23.08.2015 10:50 20,7 C 26,7 C 65 % 1006,8 hPa 0,0 mm 2,3 km/h (1 Bft) NO 45 13,9 C 3,9 km/h (1 Bft)
23.08.2015 10:55 21,0 C 26,8 C 65 % 1006,9 hPa 0,0 mm 2,8 km/h (1 Bft) NW 315 14,2 C 4,1 km/h (1 Bft)
23.08.2015 11:00 21,5 C 27,9 C 65 % 1006,9 hPa 0,0 mm 2,8 km/h (1 Bft) W 270 14,6 C 10,1 km/h (2 Bft)
23.08.2015 11:05 21,7 C 28,4 C 64 % 1006,9 hPa 0,0 mm 2,6 km/h (1 Bft) O 90 14,6 C 4,1 km/h (1 Bft)
23.08.2015 11:10 21,9 C 28,5 C 63 % 1006,9 hPa 0,0 mm 1,6 km/h (1 Bft) W-SW 247 14,5 C 0,0 km/h (0 Bft)
23.08.2015 11:15 22,5 C 29,1 C 62 % 1007,0 hPa 0,0 mm 1,8 km/h (1 Bft) N 360 14,8 C 4,9 km/h (1 Bft)
23.08.2015 11:20 22,9 C 29,4 C 62 % 1007,0 hPa 0,0 mm 2,3 km/h (1 Bft) N-NW 337 15,2 C 0,0 km/h (0 Bft)
23.08.2015 11:25 22,7 C 29,3 C 58 % 1007,0 hPa 0,0 mm 3,4 km/h (1 Bft) O-NO 67 14,0 C 4,7 km/h (1 Bft)
23.08.2015 11:30 22,2 C 28,2 C 59 % 1007,0 hPa 0,0 mm 2,8 km/h (1 Bft) O-SO 112 13,8 C 0,0 km/h (0 Bft)
23.08.2015 11:35 22,0 C 28,1 C 59 % 1006,8 hPa 0,0 mm 1,8 km/h (1 Bft) O 90 13,6 C 2,6 km/h (1 Bft)
23.08.2015 11:40 22,4 C 28,0 C 59 % 1006,8 hPa 0,0 mm 1,0 km/h (0 Bft) NO 45 14,0 C 5,4 km/h (1 Bft)
23.08.2015 11:45 22,5 C 27,9 C 61 % 1006,8 hPa 0,0 mm 1,0 km/h (0 Bft) O-SO 112 14,6 C 0,0 km/h (0 Bft)
23.08.2015 11:50 23,2 C 29,2 C 58 % 1006,8 hPa 0,0 mm 0,8 km/h (0 Bft) O-SO 112 14,5 C 0,0 km/h (0 Bft)
23.08.2015 11:55 23,0 C 29,5 C 57 % 1006,7 hPa 0,0 mm 0,8 km/h (0 Bft) O-SO 112 14,0 C 0,0 km/h (0 Bft)
23.08.2015 11:56 23,1 C 29,4 C 56 % 1006,7 hPa 0,0 mm 2,3 km/h (1 Bft) O-NO 67 13,8 C 7,8 km/h (2 Bft)
23.08.2015 12:00 23,1 C 29,4 C 56 % 1006,7 hPa 0,0 mm 2,3 km/h (1 Bft) O-NO 67 13,8 C 7,8 km/h (2 Bft)
23.08.2015 12:05 23,1 C 29,2 C 56 % 1006,7 hPa 0,0 mm 2,3 km/h (1 Bft) O-SO 112 13,8 C 0,0 km/h (0 Bft)
23.08.2015 12:10 22,9 C 28,5 C 58 % 1006,7 hPa 0,0 mm 2,6 km/h (1 Bft) O-NO 67 14,2 C 5,2 km/h (1 Bft)
23.08.2015 12:15 23,1 C 28,5 C 57 % 1006,6 hPa 0,0 mm 2,1 km/h (1 Bft) O-SO 112 14,1 C 0,0 km/h (0 Bft)
23.08.2015 12:20 23,6 C 29,6 C 56 % 1006,6 hPa 0,0 mm 1,6 km/h (1 Bft) SO 135 14,3 C 2,6 km/h (1 Bft)
23.08.2015 12:25 23,7 C 29,6 C 55 % 1006,6 hPa 0,0 mm 1,3 km/h (1 Bft) S-SO 157 14,1 C 4,1 km/h (1 Bft)
23.08.2015 12:30 23,9 C 30,1 C 54 % 1006,6 hPa 0,0 mm 1,0 km/h (0 Bft) S 180 14,0 C 0,0 km/h (0 Bft)
23.08.2015 12:35 24,1 C 30,4 C 52 % 1006,5 hPa 0,0 mm 2,1 km/h (1 Bft) SW 225 13,6 C 4,4 km/h (1 Bft)
23.08.2015 12:40 24,6 C 30,4 C 53 % 1006,5 hPa 0,0 mm 2,8 km/h (1 Bft) SO 135 14,4 C 5,4 km/h (1 Bft)
23.08.2015 12:45 24,4 C 30,1 C 51 % 1006,5 hPa 0,0 mm 4,1 km/h (1 Bft) W-NW 292 13,6 C 5,4 km/h (1 Bft)
23.08.2015 12:50 24,4 C 29,3 C 52 % 1006,5 hPa 0,0 mm 4,4 km/h (1 Bft) N-NO 22 13,9 C 12,4 km/h (3 Bft)
23.08.2015 12:55 24,2 C 28,7 C 50 % 1006,3 hPa 0,0 mm 4,9 km/h (1 Bft) N-NO 22 13,1 C 3,4 km/h (1 Bft)
23.08.2015 13:00 24,5 C 27,8 C 52 % 1006,3 hPa 0,0 mm 4,9 km/h (1 Bft) NW 315 14,0 C 15,0 km/h (3 Bft)
23.08.2015 13:05 24,8 C 27,7 C 52 % 1006,3 hPa 0,0 mm 4,9 km/h (1 Bft) N-NW 337 14,3 C 7,3 km/h (2 Bft)
23.08.2015 13:10 25,1 C 27,3 C 52 % 1006,3 hPa 0,0 mm 6,0 km/h (2 Bft) NW 315 14,5 C 11,4 km/h (2 Bft)
23.08.2015 13:15 25,3 C 27,3 C 51 % 1006,2 hPa 0,0 mm 6,5 km/h (2 Bft) N-NW 337 14,4 C 6,5 km/h (2 Bft)
23.08.2015 13:20 24,9 C 28,1 C 50 % 1006,2 hPa 0,0 mm 4,9 km/h (1 Bft) N-NO 22 13,7 C 10,1 km/h (2 Bft)
23.08.2015 13:25 24,7 C 28,6 C 49 % 1006,2 hPa 0,0 mm 4,7 km/h (1 Bft) O-NO 67 13,3 C 3,9 km/h (1 Bft)
23.08.2015 13:30 24,7 C 29,5 C 51 % 1006,2 hPa 0,0 mm 3,9 km/h (1 Bft) NW 315 13,9 C 10,1 km/h (2 Bft)
23.08.2015 13:35 25,0 C 29,6 C 49 % 1006,2 hPa 0,0 mm 5,7 km/h (1 Bft) N-NO 22 13,5 C 9,6 km/h (2 Bft)
23.08.2015 13:40 25,1 C 29,7 C 49 % 1006,2 hPa 0,0 mm 5,4 km/h (1 Bft) N 360 13,6 C 3,9 km/h (1 Bft)
23.08.2015 13:45 24,7 C 29,9 C 49 % 1006,2 hPa 0,0 mm 3,9 km/h (1 Bft) NW 315 13,3 C 6,2 km/h (2 Bft)
23.08.2015 13:50 24,7 C 29,0 C 49 % 1006,2 hPa 0,0 mm 3,9 km/h (1 Bft) NO 45 13,3 C 4,1 km/h (1 Bft)
23.08.2015 13:55 24,6 C 29,2 C 50 % 1005,9 hPa 0,0 mm 4,1 km/h (1 Bft) S-SO 157 13,5 C 3,1 km/h (1 Bft)
23.08.2015 14:00 24,3 C 29,8 C 48 % 1005,9 hPa 0,0 mm 3,9 km/h (1 Bft) S-SO 157 12,6 C 4,4 km/h (1 Bft)
23.08.2015 14:05 24,7 C 30,0 C 49 % 1005,9 hPa 0,0 mm 3,4 km/h (1 Bft) W-SW 247 13,3 C 0,0 km/h (0 Bft)
23.08.2015 14:10 24,9 C 30,1 C 48 % 1005,9 hPa 0,0 mm 4,1 km/h (1 Bft) O-NO 67 13,1 C 5,4 km/h (1 Bft)
23.08.2015 14:15 24,9 C 29,8 C 48 % 1005,4 hPa 0,0 mm 5,7 km/h (1 Bft) N-NO 22 13,1 C 5,7 km/h (1 Bft)
23.08.2015 14:20 24,7 C 30,1 C 48 % 1005,4 hPa 0,0 mm 4,9 km/h (1 Bft) SW 225 12,9 C 3,4 km/h (1 Bft)
23.08.2015 14:25 25,1 C 30,8 C 49 % 1005,4 hPa 0,0 mm 3,4 km/h (1 Bft) NW 315 13,6 C 8,3 km/h (2 Bft)
23.08.2015 14:30 25,4 C 31,1 C 49 % 1005,4 hPa 0,0 mm 3,4 km/h (1 Bft) NW 315 13,9 C 9,3 km/h (2 Bft)
23.08.2015 14:35 25,4 C 30,7 C 49 % 1005,4 hPa 0,0 mm 4,7 km/h (1 Bft) NW 315 13,9 C 2,8 km/h (1 Bft)
23.08.2015 14:40 24,3 C 28,5 C 49 % 1005,4 hPa 0,0 mm 2,8 km/h (1 Bft) W-SW 247 12,9 C 0,0 km/h (0 Bft)
23.08.2015 14:45 23,3 C 27,3 C 52 % 1005,4 hPa 0,0 mm 0,8 km/h (0 Bft) W-SW 247 12,9 C 0,0 km/h (0 Bft)
23.08.2015 14:50 23,6 C 27,9 C 53 % 1005,4 hPa 0,0 mm 0,0 km/h (0 Bft) W-SW 247 13,4 C 0,0 km/h (0 Bft)
23.08.2015 14:55 23,4 C 27,3 C 53 % 1005,4 hPa 0,0 mm 0,0 km/h (0 Bft) O-NO 67 13,3 C 0,0 km/h (0 Bft)
23.08.2015 15:00 22,7 C 25,9 C 55 % 1005,4 hPa 0,0 mm 0,5 km/h (0 Bft) SO 135 13,2 C 2,6 km/h (1 Bft)
23.08.2015 15:05 22,3 C 25,1 C 56 % 1005,4 hPa 0,0 mm 1,0 km/h (0 Bft) SO 135 13,1 C 0,0 km/h (0 Bft)
23.08.2015 15:10 21,9 C 24,5 C 56 % 1005,4 hPa 0,0 mm 1,0 km/h (0 Bft) SO 135 12,7 C 3,1 km/h (1 Bft)
23.08.2015 15:15 21,8 C 24,2 C 56 % 1005,2 hPa 0,0 mm 0,3 km/h (0 Bft) SO 135 12,6 C 0,0 km/h (0 Bft)
23.08.2015 15:20 21,5 C 23,8 C 58 % 1005,2 hPa 0,0 mm 0,3 km/h (0 Bft) S-SO 157 12,9 C 3,6 km/h (1 Bft)
23.08.2015 15:25 21,5 C 23,7 C 59 % 1005,2 hPa 0,0 mm 0,5 km/h (0 Bft) O-SO 112 13,1 C 2,8 km/h (1 Bft)
23.08.2015 15:30 21,9 C 24,5 C 61 % 1005,2 hPa 0,0 mm 0,5 km/h (0 Bft) SO 135 14,0 C 0,0 km/h (0 Bft)
23.08.2015 15:35 22,9 C 26,1 C 60 % 1004,9 hPa 0,0 mm 0,3 km/h (0 Bft) O 90 14,7 C 0,0 km/h (0 Bft)
23.08.2015 15:40 23,7 C 28,7 C 56 % 1004,9 hPa 0,0 mm 3,9 km/h (1 Bft) NO 45 14,4 C 9,6 km/h (2 Bft)
23.08.2015 15:45 23,7 C 28,6 C 55 % 1004,9 hPa 0,0 mm 6,2 km/h (2 Bft) O-NO 67 14,1 C 9,3 km/h (2 Bft)
23.08.2015 15:50 23,3 C 27,5 C 54 % 1004,9 hPa 0,0 mm 4,9 km/h (1 Bft) O-SO 112 13,5 C 4,9 km/h (1 Bft)
23.08.2015 15:55 22,8 C 26,3 C 56 % 1004,6 hPa 0,0 mm 3,6 km/h (1 Bft) O-NO 67 13,6 C 2,8 km/h (1 Bft)
23.08.2015 16:00 22,4 C 24,9 C 57 % 1004,6 hPa 0,0 mm 2,8 km/h (1 Bft) O-NO 67 13,5 C 3,4 km/h (1 Bft)
23.08.2015 16:05 22,3 C 24,5 C 57 % 1004,6 hPa 0,0 mm 1,8 km/h (1 Bft) O-SO 112 13,4 C 3,1 km/h (1 Bft)
23.08.2015 16:10 22,1 C 24,1 C 58 % 1004,6 hPa 0,0 mm 0,8 km/h (0 Bft) O-SO 112 13,4 C 2,6 km/h (1 Bft)
23.08.2015 16:15 22,0 C 24,1 C 58 % 1004,4 hPa 0,0 mm 0,8 km/h (0 Bft) O 90 13,3 C 3,9 km/h (1 Bft)
23.08.2015 16:20 22,2 C 24,3 C 58 % 1004,4 hPa 0,0 mm 1,0 km/h (0 Bft) SO 135 13,5 C 0,0 km/h (0 Bft)
23.08.2015 16:25 22,3 C 24,5 C 59 % 1004,4 hPa 0,0 mm 0,8 km/h (0 Bft) O-SO 112 13,9 C 0,0 km/h (0 Bft)
23.08.2015 16:30 22,5 C 24,8 C 59 % 1004,4 hPa 0,0 mm 0,5 km/h (0 Bft) O-NO 67 14,1 C 0,0 km/h (0 Bft)
23.08.2015 16:35 22,5 C 24,9 C 59 % 1004,1 hPa 0,0 mm 0,5 km/h (0 Bft) O-NO 67 14,1 C 0,0 km/h (0 Bft)
23.08.2015 16:40 22,4 C 24,8 C 59 % 1004,1 hPa 0,0 mm 0,8 km/h (0 Bft) O-NO 67 14,0 C 5,2 km/h (1 Bft)
23.08.2015 16:45 22,5 C 24,7 C 59 % 1004,1 hPa 0,0 mm 0,8 km/h (0 Bft) O 90 14,1 C 0,0 km/h (0 Bft)
23.08.2015 16:50 22,2 C 24,1 C 59 % 1004,1 hPa 0,0 mm 0,5 km/h (0 Bft) O-SO 112 13,8 C 0,0 km/h (0 Bft)
23.08.2015 16:55 21,8 C 23,6 C 61 % 1004,3 hPa 0,0 mm 0,3 km/h (0 Bft) SO 135 13,9 C 0,0 km/h (0 Bft)
23.08.2015 17:00 21,1 C 22,8 C 61 % 1004,3 hPa 0,0 mm 0,5 km/h (0 Bft) SO 135 13,3 C 3,1 km/h (1 Bft)
23.08.2015 17:05 20,7 C 22,1 C 63 % 1004,3 hPa 0,0 mm 1,0 km/h (0 Bft) SO 135 13,4 C 0,0 km/h (0 Bft)
23.08.2015 17:10 20,1 C 20,3 C 68 % 1004,3 hPa 0,0 mm 2,8 km/h (1 Bft) SO 135 14,0 C 4,9 km/h (1 Bft)
23.08.2015 17:15 19,5 C 19,4 C 70 % 1004,7 hPa 0,0 mm 3,6 km/h (1 Bft) S 180 13,9 C 7,0 km/h (2 Bft)
23.08.2015 17:20 19,1 C 18,7 C 70 % 1004,7 hPa 0,0 mm 4,7 km/h (1 Bft) SW 225 13,5 C 6,5 km/h (2 Bft)
23.08.2015 17:25 18,9 C 18,4 C 70 % 1004,7 hPa 0,0 mm 4,7 km/h (1 Bft) W 270 13,3 C 2,8 km/h (1 Bft)
23.08.2015 17:30 18,9 C 18,4 C 70 % 1004,7 hPa 0,0 mm 2,6 km/h (1 Bft) W-SW 247 13,3 C 2,6 km/h (1 Bft)
23.08.2015 17:35 18,7 C 18,2 C 70 % 1004,9 hPa 0,0 mm 2,3 km/h (1 Bft) W-SW 247 13,1 C 4,7 km/h (1 Bft)
23.08.2015 17:40 17,6 C 17,3 C 75 % 1004,9 hPa 0,0 mm 3,4 km/h (1 Bft) O-SO 112 13,1 C 2,8 km/h (1 Bft)
23.08.2015 17:45 17,2 C 16,9 C 75 % 1004,9 hPa 0,0 mm 2,3 km/h (1 Bft) S-SO 157 12,7 C 3,6 km/h (1 Bft)
23.08.2015 17:50 16,8 C 16,5 C 77 % 1004,9 hPa 0,0 mm 2,8 km/h (1 Bft) S 180 12,7 C 2,8 km/h (1 Bft)
23.08.2015 17:55 16,9 C 16,5 C 78 % 1004,1 hPa 0,0 mm 4,9 km/h (1 Bft) S 180 13,0 C 6,7 km/h (2 Bft)
23.08.2015 17:56 17,0 C 16,6 C 77 % 1004,1 hPa 0,0 mm 3,4 km/h (1 Bft) SO 135 12,9 C 0,0 km/h (0 Bft)
23.08.2015 18:01 16,9 C 16,5 C 78 % 1004,1 hPa 0,0 mm 1,6 km/h (1 Bft) O-SO 112 13,0 C 0,0 km/h (0 Bft)
23.08.2015 18:05 16,9 C 16,5 C 78 % 1004,1 hPa 0,0 mm 1,6 km/h (1 Bft) O-SO 112 13,0 C 0,0 km/h (0 Bft)
23.08.2015 18:10 16,9 C 16,6 C 76 % 1004,1 hPa 0,0 mm 0,8 km/h (0 Bft) W-NW 292 12,6 C 4,1 km/h (1 Bft)
23.08.2015 18:15 17,0 C 16,7 C 76 % 1004,5 hPa 0,0 mm 1,6 km/h (1 Bft) N-NW 337 12,7 C 4,7 km/h (1 Bft)
23.08.2015 18:20 16,9 C 16,7 C 77 % 1004,5 hPa 0,0 mm 1,6 km/h (1 Bft) SW 225 12,8 C 0,0 km/h (0 Bft)
23.08.2015 18:25 16,9 C 16,7 C 77 % 1004,5 hPa 0,0 mm 2,1 km/h (1 Bft) W-NW 292 12,8 C 5,4 km/h (1 Bft)
23.08.2015 18:30 16,9 C 16,7 C 78 % 1004,5 hPa 0,0 mm 1,8 km/h (1 Bft) W 270 13,0 C 0,0 km/h (0 Bft)
23.08.2015 18:35 16,8 C 16,5 C 78 % 1004,8 hPa 0,0 mm 1,0 km/h (0 Bft) SO 135 12,9 C 2,6 km/h (1 Bft)
23.08.2015 18:40 16,5 C 16,3 C 78 % 1004,8 hPa 0,0 mm 2,1 km/h (1 Bft) S-SO 157 12,6 C 4,7 km/h (1 Bft)
23.08.2015 18:45 16,5 C 16,3 C 78 % 1004,8 hPa 0,0 mm 3,4 km/h (1 Bft) S-SO 157 12,6 C 6,7 km/h (2 Bft)
23.08.2015 18:50 16,5 C 16,3 C 79 % 1004,8 hPa 0,0 mm 3,9 km/h (1 Bft) W-SW 247 12,8 C 3,6 km/h (1 Bft)
23.08.2015 18:55 16,5 C 16,3 C 79 % 1004,8 hPa 0,0 mm 2,8 km/h (1 Bft) W-SW 247 12,8 C 0,0 km/h (0 Bft)
23.08.2015 19:00 16,6 C 16,4 C 79 % 1004,8 hPa 0,0 mm 0,8 km/h (0 Bft) O-SO 112 12,9 C 0,0 km/h (0 Bft)
23.08.2015 19:05 16,6 C 16,5 C 80 % 1004,8 hPa 0,0 mm 0,3 km/h (0 Bft) SO 135 13,1 C 0,0 km/h (0 Bft)
23.08.2015 19:10 16,7 C 16,6 C 80 % 1004,8 hPa 0,7 mm 0,0 km/h (0 Bft) O-SO 112 13,2 C 0,0 km/h (0 Bft)
23.08.2015 19:15 16,8 C 16,6 C 83 % 1004,7 hPa 0,0 mm 0,0 km/h (0 Bft) O-SO 112 13,9 C 3,1 km/h (1 Bft)
23.08.2015 19:20 17,0 C 16,9 C 80 % 1004,7 hPa 0,0 mm 0,3 km/h (0 Bft) SO 135 13,5 C 0,0 km/h (0 Bft)
23.08.2015 19:25 17,1 C 17,0 C 80 % 1004,7 hPa 0,0 mm 0,3 km/h (0 Bft) NO 45 13,6 C 0,0 km/h (0 Bft)
23.08.2015 19:30 17,1 C 17,0 C 80 % 1004,7 hPa 0,0 mm 0,0 km/h (0 Bft) S-SO 157 13,6 C 0,0 km/h (0 Bft)
23.08.2015 19:35 17,1 C 16,8 C 81 % 1004,9 hPa 0,0 mm 0,0 km/h (0 Bft) O-SO 112 13,8 C 0,0 km/h (0 Bft)
23.08.2015 19:40 16,7 C 16,5 C 81 % 1004,9 hPa 0,0 mm 0,0 km/h (0 Bft) S-SO 157 13,4 C 0,0 km/h (0 Bft)
23.08.2015 19:45 16,6 C 16,3 C 81 % 1004,9 hPa 0,0 mm 0,0 km/h (0 Bft) S 180 13,3 C 0,0 km/h (0 Bft)
23.08.2015 19:50 16,2 C 16,0 C 82 % 1004,9 hPa 0,0 mm 0,0 km/h (0 Bft) S-SO 157 13,1 C 0,0 km/h (0 Bft)
23.08.2015 19:55 16,1 C 15,8 C 82 % 1004,8 hPa 0,0 mm 0,0 km/h (0 Bft) O-NO 67 13,0 C 0,0 km/h (0 Bft)
23.08.2015 20:00 15,9 C 15,7 C 83 % 1004,8 hPa 0,0 mm 0,3 km/h (0 Bft) SO 135 13,0 C 0,0 km/h (0 Bft)
23.08.2015 20:05 15,7 C 15,5 C 83 % 1004,8 hPa 0,0 mm 0,3 km/h (0 Bft) O-SO 112 12,8 C 0,0 km/h (0 Bft)
23.08.2015 20:10 15,5 C 15,2 C 83 % 1004,8 hPa 0,0 mm 0,3 km/h (0 Bft) SO 135 12,6 C 0,0 km/h (0 Bft)
23.08.2015 20:15 15,3 C 15,1 C 83 % 1004,8 hPa 0,0 mm 0,5 km/h (0 Bft) S-SO 157 12,4 C 0,0 km/h (0 Bft)
23.08.2015 20:20 15,2 C 14,9 C 84 % 1004,8 hPa 0,0 mm 1,8 km/h (1 Bft) S-SO 157 12,5 C 0,0 km/h (0 Bft)
23.08.2015 20:25 15,1 C 14,9 C 84 % 1004,8 hPa 0,0 mm 1,8 km/h (1 Bft) O 90 12,4 C 0,0 km/h (0 Bft)
23.08.2015 20:30 14,9 C 14,7 C 84 % 1004,8 hPa 0,0 mm 0,5 km/h (0 Bft) O 90 12,2 C 0,0 km/h (0 Bft)
23.08.2015 20:35 14,8 C 14,6 C 84 % 1004,6 hPa 0,0 mm 0,5 km/h (0 Bft) S 180 12,1 C 0,0 km/h (0 Bft)
23.08.2015 20:40 14,8 C 14,6 C 84 % 1004,6 hPa 0,0 mm 0,3 km/h (0 Bft) NO 45 12,1 C 0,0 km/h (0 Bft)
23.08.2015 20:45 14,7 C 14,5 C 84 % 1004,6 hPa 0,0 mm 0,3 km/h (0 Bft) S 180 12,0 C 0,0 km/h (0 Bft)
23.08.2015 20:50 14,7 C 14,5 C 85 % 1004,6 hPa 0,0 mm 0,3 km/h (0 Bft) S 180 12,2 C 0,0 km/h (0 Bft)
23.08.2015 20:55 14,7 C 14,5 C 85 % 1004,9 hPa 0,0 mm 0,3 km/h (0 Bft) S 180 12,2 C 0,0 km/h (0 Bft)
23.08.2015 21:00 14,7 C 14,5 C 85 % 1004,9 hPa 0,0 mm 0,0 km/h (0 Bft) S 180 12,2 C 0,0 km/h (0 Bft)
23.08.2015 21:05 14,7 C 14,5 C 86 % 1004,9 hPa 0,0 mm 0,0 km/h (0 Bft) S 180 12,4 C 0,0 km/h (0 Bft)
23.08.2015 21:10 14,7 C 14,5 C 86 % 1004,9 hPa 0,0 mm 0,0 km/h (0 Bft) S 180 12,4 C 0,0 km/h (0 Bft)
23.08.2015 21:15 14,6 C 14,4 C 86 % 1004,8 hPa 0,0 mm 0,0 km/h (0 Bft) O-SO 112 12,3 C 0,0 km/h (0 Bft)
23.08.2015 21:20 14,6 C 14,4 C 86 % 1004,8 hPa 0,0 mm 0,0 km/h (0 Bft) S-SO 157 12,3 C 0,0 km/h (0 Bft)
23.08.2015 21:25 14,7 C 14,5 C 86 % 1004,8 hPa 0,0 mm 0,0 km/h (0 Bft) O-SO 112 12,4 C 0,0 km/h (0 Bft)
23.08.2015 21:30 14,7 C 14,5 C 86 % 1004,8 hPa 0,0 mm 0,0 km/h (0 Bft) S 180 12,4 C 0,0 km/h (0 Bft)
23.08.2015 21:35 14,6 C 14,5 C 86 % 1004,9 hPa 0,0 mm 0,0 km/h (0 Bft) S-SW 202 12,3 C 0,0 km/h (0 Bft)
23.08.2015 21:40 14,6 C 14,5 C 86 % 1004,9 hPa 0,0 mm 0,5 km/h (0 Bft) S-SO 157 12,3 C 0,0 km/h (0 Bft)
23.08.2015 21:45 14,6 C 14,4 C 87 % 1004,9 hPa 0,0 mm 0,5 km/h (0 Bft) S-SO 157 12,5 C 0,0 km/h (0 Bft)
23.08.2015 21:50 14,6 C 14,4 C 87 % 1004,9 hPa 0,0 mm 0,0 km/h (0 Bft) S 180 12,5 C 0,0 km/h (0 Bft)
23.08.2015 21:55 14,5 C 14,4 C 87 % 1004,9 hPa 0,0 mm 0,0 km/h (0 Bft) SO 135 12,4 C 0,0 km/h (0 Bft)
23.08.2015 22:00 14,3 C 14,2 C 87 % 1004,9 hPa 0,0 mm 0,3 km/h (0 Bft) S-SW 202 12,2 C 3,4 km/h (1 Bft)
23.08.2015 22:05 14,5 C 14,3 C 87 % 1004,9 hPa 0,0 mm 1,0 km/h (0 Bft) S 180 12,4 C 0,0 km/h (0 Bft)
23.08.2015 22:10 14,3 C 14,2 C 87 % 1004,9 hPa 0,0 mm 1,3 km/h (1 Bft) NW 315 12,2 C 4,7 km/h (1 Bft)
23.08.2015 22:15 14,1 C 14,0 C 87 % 1005,0 hPa 0,0 mm 0,8 km/h (0 Bft) W-SW 247 12,0 C 0,0 km/h (0 Bft)
23.08.2015 22:20 14,2 C 14,2 C 85 % 1005,0 hPa 0,0 mm 0,8 km/h (0 Bft) S-SO 157 11,7 C 0,0 km/h (0 Bft)
23.08.2015 22:25 14,3 C 14,2 C 85 % 1005,0 hPa 0,0 mm 0,5 km/h (0 Bft) SW 225 11,8 C 3,9 km/h (1 Bft)
23.08.2015 22:30 14,4 C 14,3 C 88 % 1005,0 hPa 0,0 mm 1,6 km/h (1 Bft) SO 135 12,4 C 0,0 km/h (0 Bft)
23.08.2015 22:35 14,4 C 14,3 C 88 % 1004,9 hPa 0,0 mm 1,6 km/h (1 Bft) SO 135 12,4 C 0,0 km/h (0 Bft)
23.08.2015 22:40 14,4 C 14,3 C 88 % 1004,9 hPa 0,0 mm 0,0 km/h (0 Bft) S 180 12,4 C 0,0 km/h (0 Bft)
23.08.2015 22:45 14,4 C 14,4 C 85 % 1004,9 hPa 0,0 mm 0,3 km/h (0 Bft) S 180 11,9 C 3,6 km/h (1 Bft)
23.08.2015 22:50 14,5 C 14,5 C 85 % 1004,9 hPa 0,0 mm 1,6 km/h (1 Bft) S 180 12,0 C 4,7 km/h (1 Bft)
23.08.2015 22:55 14,5 C 14,4 C 88 % 1005,1 hPa 0,0 mm 1,8 km/h (1 Bft) S-SO 157 12,5 C 0,0 km/h (0 Bft)
23.08.2015 23:00 14,4 C 14,3 C 88 % 1005,1 hPa 0,0 mm 0,5 km/h (0 Bft) S-SO 157 12,4 C 0,0 km/h (0 Bft)
23.08.2015 23:05 14,4 C 14,3 C 88 % 1005,1 hPa 0,0 mm 0,0 km/h (0 Bft) S-SO 157 12,4 C 0,0 km/h (0 Bft)
23.08.2015 23:10 14,3 C 14,2 C 88 % 1005,1 hPa 0,0 mm 0,0 km/h (0 Bft) S-SO 157 12,3 C 0,0 km/h (0 Bft)
23.08.2015 23:15 14,3 C 14,2 C 87 % 1005,3 hPa 0,0 mm 0,0 km/h (0 Bft) W-SW 247 12,2 C 0,0 km/h (0 Bft)
23.08.2015 23:20 14,2 C 14,1 C 87 % 1005,3 hPa 0,0 mm 0,0 km/h (0 Bft) W-SW 247 12,1 C 0,0 km/h (0 Bft)
23.08.2015 23:25 14,2 C 14,1 C 88 % 1005,3 hPa 0,0 mm 0,0 km/h (0 Bft) W-SW 247 12,2 C 0,0 km/h (0 Bft)
23.08.2015 23:30 14,2 C 14,1 C 88 % 1005,3 hPa 0,0 mm 0,0 km/h (0 Bft) SW 225 12,2 C 0,0 km/h (0 Bft)
23.08.2015 23:35 14,2 C 14,1 C 85 % 1005,2 hPa 0,0 mm 0,0 km/h (0 Bft) SW 225 11,7 C 0,0 km/h (0 Bft)
23.08.2015 23:40 14,3 C 14,2 C 88 % 1005,2 hPa 0,0 mm 0,0 km/h (0 Bft) SW 225 12,3 C 0,0 km/h (0 Bft)
23.08.2015 23:45 14,4 C 14,3 C 85 % 1005,2 hPa 0,0 mm 0,5 km/h (0 Bft) W 270 11,9 C 0,0 km/h (0 Bft)
23.08.2015 23:50 14,6 C 14,5 C 88 % 1005,2 hPa 0,0 mm 1,0 km/h (0 Bft) W-SW 247 12,6 C 0,0 km/h (0 Bft)
23.08.2015 23:55 14,6 C 14,5 C 88 % 1005,2 hPa 0,0 mm 0,5 km/h (0 Bft) W-SW 247 12,6 C 0,0 km/h (0 Bft)
_ Min-Zeit 06:00 06:00 14:20 18:10 - 23:40 - - 06:00 23:55
Minimum _ 7,5 C 7,4 C 48 % 1004,1 hPa - 0,0 km/h (0 Bft) - - 5,8 C 0,0 km/h (0 Bft)
_ Max-Zeit 14:35 14:30 07:30 00:10 19:10 13:15 - - 11:20 13:00
Maximum _ 25,4 C 31,1 C 90 % 1009,4 hPa 0,7 mm 6,5 km/h
N-NW (2 Bft)
- - 15,2 C 15,0 km/h
NW (3 Bft)
Durchschnitt _ 15,4 C 17,2 C 76 % 1006,1 hPa #0,7 mm 1,0 km/h (0 Bft) O-NO - 10,9 C 1,5 km/h (1 Bft)